Tracking 34346 objects as of 10-Jun-2026
HD Live streaming from Space Station
objects crossing your sky now

STARLINK-3859

Track STARLINK-3859 now!
10-day predictions
STARLINK-3859 is classified as:


NORAD ID: 52470
Int'l Code: 2022-049V
Perigee: 545.3 km
Apogee: 548.5 km
Inclination: 53.2 °
Period: 95.4 minutes
Semi major axis: 6917 km
RCS: Unknown
Launch date: May 6, 2022
Source: United States (US)
Launch site: AIR FORCE EASTERN TEST RANGE (AFETR)
Your satellite tracking list
Your tracking list is empty




NASA's NSSDC Master Catalog

Two Line Element Set (TLE):
1 52470U 22049V   26160.84910441  .00000630  00000-0  57722-4 0  9997
2 52470  53.1642   5.3509 0002287  70.0820 290.0417 15.08836976226162
Source of the keplerian elements: AFSPC